Weather in Usogorsk

Russia / Komi Republic     63°25′43″N   48°39′35″E
temp.,
°C
wind,
m/s
gust,
m/s
humid.,
%
clouds,
%
prec.,
mm/h
press.,
hPa
HPBL,
m
3 march, wed
wed300:00−6w41294100 0.1 992556
03:00−5wnw51294100 0.4 992830
06:00−6wnw51291100 0.3 990689
09:00−5wnw61190100 0.3 991954
12:00−4wnw61090100 0.3 991984
15:00−4wnw51093100 1.2 992841
18:00−7w51292100 0.4 992621
21:00−8wnw3995100 0.4 992344
4 march, thu
thu400:00−11w259796 0.1 990114
03:00−12nw129898 0.2 99130
06:00−15n229798 0.1 99040
09:00−16nnw249490 0.1 991223
12:00−13nw249178 0.0 991395
15:00−13nw259089 0.1 992500
18:00−16nw2397100 0.1 99365
21:00−16nw259798 0.1 994170
5 march, fri
fri500:00−17nw259796 0.1 995162
03:00−17nw259795 0.3 996134
06:00−17nnw259790 0.1 998169
09:00−16n249493 0.1 999304
12:00−14nnw2391100 0.1 1001410
15:00−14nnw2491100 0.3 1002486
18:00−16nnw249799 0.1 1003156
21:00−18nnw249798 0.2 1005101
6 march, sat
sat600:00−19nnw249897 0.1 1005118
03:00−20nnw249898 0.3 1006119
06:00−21nw239896 0.1 1007116
09:00−20nw239598 0.2 1007282
12:00−18nw228599 0.1 1007583
15:00−17wnw2387100 0.1 1007695
18:00−22w1297100 0.0 100620
21:00−24ssw129860 0.0 100620
7 march, sun
sun700:00−24s229931 0.0 100523
03:00−23sse229860 0.0 100463
06:00−24se249985 0.0 1003100
09:00−20se359791 0.2 1002227
12:00−15se369393 0.0 1001331
15:00−14ese479294 0.1 1000432
18:00−17ese4995100 0.0 1001333
21:00−18ese4994100 0.0 1001312